Year,Month,Day,Hour,Minute,Value (Times are PST for temperature in C)
2020,06,27,00,00,14.60
2020,06,27,00,01,14.60
2020,06,27,00,02,14.60
2020,06,27,00,03,14.60
2020,06,27,00,04,14.60
2020,06,27,00,05,14.60
2020,06,27,00,06,14.60
2020,06,27,00,07,14.60
2020,06,27,00,08,14.60
2020,06,27,00,09,14.60
2020,06,27,00,10,14.60
2020,06,27,00,11,14.60
2020,06,27,00,12,14.60
2020,06,27,00,13,14.60
2020,06,27,00,14,14.60
2020,06,27,00,15,14.60
2020,06,27,00,16,14.60
2020,06,27,00,17,14.60
2020,06,27,00,18,14.60
2020,06,27,00,19,14.60
2020,06,27,00,20,14.60
2020,06,27,00,21,14.60
2020,06,27,00,22,14.60
2020,06,27,00,23,14.60
2020,06,27,00,24,14.60
2020,06,27,00,25,14.60
2020,06,27,00,26,14.60
2020,06,27,00,27,14.60
2020,06,27,00,28,14.60
2020,06,27,00,29,14.60
2020,06,27,00,30,14.60
2020,06,27,00,31,14.60
2020,06,27,00,32,14.60
2020,06,27,00,33,14.50
2020,06,27,00,34,14.50
2020,06,27,00,35,14.50
2020,06,27,00,36,14.50
2020,06,27,00,37,14.50
2020,06,27,00,38,14.50
2020,06,27,00,39,14.50
2020,06,27,00,40,14.50
2020,06,27,00,41,14.50
2020,06,27,00,42,14.40
2020,06,27,00,43,14.40
2020,06,27,00,44,14.40
2020,06,27,00,45,14.40
2020,06,27,00,46,14.40
2020,06,27,00,47,14.40
2020,06,27,00,48,14.40
2020,06,27,00,49,14.40
2020,06,27,00,50,14.30
2020,06,27,00,51,14.30
2020,06,27,00,52,14.30
2020,06,27,00,53,14.30
2020,06,27,00,54,14.30
2020,06,27,00,55,14.30
2020,06,27,00,56,14.30
2020,06,27,00,57,14.30
2020,06,27,00,58,14.30
2020,06,27,00,59,14.30
2020,06,27,01,00,14.30
2020,06,27,01,01,14.30
2020,06,27,01,02,14.30
2020,06,27,01,03,14.40
2020,06,27,01,04,14.40
2020,06,27,01,05,14.40
2020,06,27,01,06,14.40
2020,06,27,01,07,14.50
2020,06,27,01,08,14.50
2020,06,27,01,09,14.50
2020,06,27,01,10,14.50
2020,06,27,01,11,14.50
2020,06,27,01,12,14.50
2020,06,27,01,13,14.50
2020,06,27,01,14,14.50
2020,06,27,01,15,14.50
2020,06,27,01,16,14.40
2020,06,27,01,17,14.40
2020,06,27,01,18,14.40
2020,06,27,01,19,14.40
2020,06,27,01,20,14.40
2020,06,27,01,21,14.30
2020,06,27,01,22,14.30
2020,06,27,01,23,14.30
2020,06,27,01,24,14.30
2020,06,27,01,25,14.30
2020,06,27,01,26,14.30
2020,06,27,01,27,14.20
2020,06,27,01,28,14.20
2020,06,27,01,29,14.20
2020,06,27,01,30,14.20
2020,06,27,01,31,14.20
2020,06,27,01,32,14.20
2020,06,27,01,33,14.10
2020,06,27,01,34,14.10
2020,06,27,01,35,14.10
2020,06,27,01,36,14.10
2020,06,27,01,37,14.00
2020,06,27,01,38,14.00
2020,06,27,01,39,14.00
2020,06,27,01,40,13.90
2020,06,27,01,41,13.90
2020,06,27,01,42,13.90
2020,06,27,01,43,13.90
2020,06,27,01,44,13.90
2020,06,27,01,45,13.90
2020,06,27,01,46,13.90
2020,06,27,01,47,13.90
2020,06,27,01,48,13.80
2020,06,27,01,49,13.80
2020,06,27,01,50,13.80
2020,06,27,01,51,13.80
2020,06,27,01,52,13.80
2020,06,27,01,53,13.80
2020,06,27,01,54,13.80
2020,06,27,01,55,13.80
2020,06,27,01,56,13.80
2020,06,27,01,57,13.80
2020,06,27,01,58,13.80
2020,06,27,01,59,13.80
2020,06,27,02,00,13.80
2020,06,27,02,01,13.80
2020,06,27,02,02,13.80
2020,06,27,02,03,13.80
2020,06,27,02,04,13.70
2020,06,27,02,05,13.80
2020,06,27,02,06,13.70
2020,06,27,02,07,13.70
2020,06,27,02,08,13.70
2020,06,27,02,09,13.70
2020,06,27,02,10,13.70
2020,06,27,02,11,13.70
2020,06,27,02,12,13.70
2020,06,27,02,13,13.70
2020,06,27,02,14,13.70
2020,06,27,02,15,13.70
2020,06,27,02,16,13.70
2020,06,27,02,17,13.70
2020,06,27,02,18,13.80
2020,06,27,02,19,13.80
2020,06,27,02,20,13.80
2020,06,27,02,21,13.80
2020,06,27,02,22,13.80
2020,06,27,02,23,13.80
2020,06,27,02,24,13.80
2020,06,27,02,25,13.80
2020,06,27,02,26,13.80
2020,06,27,02,27,13.80
2020,06,27,02,28,13.80
2020,06,27,02,29,13.80
2020,06,27,02,30,13.80
2020,06,27,02,31,13.80
2020,06,27,02,32,13.80
2020,06,27,02,33,13.80
2020,06,27,02,34,13.80
2020,06,27,02,35,13.80
2020,06,27,02,36,13.80
2020,06,27,02,37,13.80
2020,06,27,02,38,13.80
2020,06,27,02,39,13.80
2020,06,27,02,40,13.80
2020,06,27,02,41,13.80
2020,06,27,02,42,13.80
2020,06,27,02,43,13.80
2020,06,27,02,44,13.80
2020,06,27,02,45,13.80
2020,06,27,02,46,13.80
2020,06,27,02,47,13.80
2020,06,27,02,48,13.80
2020,06,27,02,49,13.80
2020,06,27,02,50,13.80
2020,06,27,02,51,13.80
2020,06,27,02,52,13.90
2020,06,27,02,53,13.90
2020,06,27,02,54,13.90
2020,06,27,02,55,13.90
2020,06,27,02,56,13.90
2020,06,27,02,57,13.90
2020,06,27,02,58,13.90
2020,06,27,02,59,13.90
2020,06,27,03,00,13.90
2020,06,27,03,01,13.90
2020,06,27,03,02,13.90
2020,06,27,03,03,13.90
2020,06,27,03,04,13.90
2020,06,27,03,05,13.90
2020,06,27,03,06,13.90
2020,06,27,03,07,13.90
2020,06,27,03,08,13.90
2020,06,27,03,09,13.90
2020,06,27,03,10,13.90
2020,06,27,03,11,13.90
2020,06,27,03,12,13.90
2020,06,27,03,13,13.90
2020,06,27,03,14,13.90
2020,06,27,03,15,13.90
2020,06,27,03,16,13.90
2020,06,27,03,17,13.90
2020,06,27,03,18,13.90
2020,06,27,03,19,13.90
2020,06,27,03,20,13.90
2020,06,27,03,21,13.90
2020,06,27,03,22,13.90
2020,06,27,03,23,13.90
2020,06,27,03,24,13.90
2020,06,27,03,25,13.90
2020,06,27,03,26,13.90
2020,06,27,03,27,13.90
2020,06,27,03,28,13.90
2020,06,27,03,29,13.90
2020,06,27,03,30,13.90
2020,06,27,03,31,13.90
2020,06,27,03,32,13.90
2020,06,27,03,33,13.90
2020,06,27,03,34,13.80
2020,06,27,03,35,13.80
2020,06,27,03,36,13.80
2020,06,27,03,37,13.80
2020,06,27,03,38,13.80
2020,06,27,03,39,13.80
2020,06,27,03,40,13.80
2020,06,27,03,41,13.80
2020,06,27,03,42,13.80
2020,06,27,03,43,13.80
2020,06,27,03,44,13.80
2020,06,27,03,45,13.80
2020,06,27,03,46,13.80
2020,06,27,03,47,13.80
2020,06,27,03,48,13.80
2020,06,27,03,49,13.80
2020,06,27,03,50,13.80
2020,06,27,03,51,13.80
2020,06,27,03,52,13.80
2020,06,27,03,53,13.80
2020,06,27,03,54,13.80
2020,06,27,03,55,13.80
2020,06,27,03,56,13.80
2020,06,27,03,57,13.80
2020,06,27,03,58,13.80
2020,06,27,03,59,13.80
2020,06,27,04,00,13.80
2020,06,27,04,01,13.80
2020,06,27,04,02,13.80
2020,06,27,04,03,13.80
2020,06,27,04,04,13.80
2020,06,27,04,05,13.80
2020,06,27,04,06,13.80
2020,06,27,04,07,13.80
2020,06,27,04,08,13.80
2020,06,27,04,09,13.80
2020,06,27,04,10,13.90
2020,06,27,04,11,13.90
2020,06,27,04,12,13.90
2020,06,27,04,13,13.90
2020,06,27,04,14,13.90
2020,06,27,04,15,13.90
2020,06,27,04,16,13.90
2020,06,27,04,17,13.90
2020,06,27,04,18,13.90
2020,06,27,04,19,13.90
2020,06,27,04,20,13.90
2020,06,27,04,21,13.90
2020,06,27,04,22,13.90
2020,06,27,04,23,13.90
2020,06,27,04,24,13.90
2020,06,27,04,25,13.90
2020,06,27,04,26,13.90
2020,06,27,04,27,13.90
2020,06,27,04,28,13.80
2020,06,27,04,29,13.80
2020,06,27,04,30,13.80
2020,06,27,04,31,13.80
2020,06,27,04,32,13.80
2020,06,27,04,33,13.80
2020,06,27,04,34,13.80
2020,06,27,04,35,13.80
2020,06,27,04,36,13.80
2020,06,27,04,37,13.80
2020,06,27,04,38,13.80
2020,06,27,04,39,13.80
2020,06,27,04,40,13.80
2020,06,27,04,41,13.80
2020,06,27,04,42,13.80
2020,06,27,04,43,13.80
2020,06,27,04,44,13.80
2020,06,27,04,45,13.80
2020,06,27,04,46,13.80
2020,06,27,04,47,13.80
2020,06,27,04,48,13.80
2020,06,27,04,49,13.80
2020,06,27,04,50,13.80
2020,06,27,04,51,13.80
2020,06,27,04,52,13.80
2020,06,27,04,53,13.80
2020,06,27,04,54,13.80
2020,06,27,04,55,13.80
2020,06,27,04,56,13.90
2020,06,27,04,57,13.90
2020,06,27,04,58,13.80
2020,06,27,04,59,13.80
2020,06,27,05,00,13.80
2020,06,27,05,01,13.80
2020,06,27,05,02,13.80
2020,06,27,05,03,13.80
2020,06,27,05,04,13.90
2020,06,27,05,05,13.80
2020,06,27,05,06,13.80
2020,06,27,05,07,13.80
2020,06,27,05,08,13.80
2020,06,27,05,09,13.80
2020,06,27,05,10,13.80
2020,06,27,05,11,13.80
2020,06,27,05,12,13.80
2020,06,27,05,13,13.80
2020,06,27,05,14,13.80
2020,06,27,05,15,13.80
2020,06,27,05,16,13.80
2020,06,27,05,17,13.80
2020,06,27,05,18,13.80
2020,06,27,05,19,13.80
2020,06,27,05,20,13.80
2020,06,27,05,21,13.80
2020,06,27,05,22,13.80
2020,06,27,05,23,13.80
2020,06,27,05,24,13.80
2020,06,27,05,25,13.80
2020,06,27,05,26,13.80
2020,06,27,05,27,13.80
2020,06,27,05,28,13.80
2020,06,27,05,29,13.80
2020,06,27,05,30,13.80
2020,06,27,05,31,13.80
2020,06,27,05,32,13.80
2020,06,27,05,33,13.80
2020,06,27,05,34,13.70
2020,06,27,05,35,13.70
2020,06,27,05,36,13.70
2020,06,27,05,37,13.70
2020,06,27,05,38,13.70
2020,06,27,05,39,13.70
2020,06,27,05,40,13.80
2020,06,27,05,41,13.80
2020,06,27,05,42,13.80
2020,06,27,05,43,13.80
2020,06,27,05,44,13.80
2020,06,27,05,45,13.80
2020,06,27,05,46,13.80
2020,06,27,05,47,13.80
2020,06,27,05,48,13.80
2020,06,27,05,49,13.80
2020,06,27,05,50,13.80
2020,06,27,05,51,13.80
2020,06,27,05,52,13.80
2020,06,27,05,53,13.80
2020,06,27,05,54,13.80
2020,06,27,05,55,13.80
2020,06,27,05,56,13.80
2020,06,27,05,57,13.80
2020,06,27,05,58,13.80
2020,06,27,05,59,13.80
2020,06,27,06,00,13.90
2020,06,27,06,01,13.90
2020,06,27,06,02,13.90
2020,06,27,06,03,13.90
2020,06,27,06,04,13.90
2020,06,27,06,05,13.90
2020,06,27,06,06,13.90
2020,06,27,06,07,13.90
2020,06,27,06,08,13.90
2020,06,27,06,09,13.90
2020,06,27,06,10,13.90
2020,06,27,06,11,13.90
2020,06,27,06,12,13.90
2020,06,27,06,13,13.90
2020,06,27,06,14,13.90
2020,06,27,06,15,13.90
2020,06,27,06,16,13.90
2020,06,27,06,17,13.90
2020,06,27,06,18,13.90
2020,06,27,06,19,13.90
2020,06,27,06,20,13.90
2020,06,27,06,21,13.90
2020,06,27,06,22,13.90
2020,06,27,06,23,13.90
2020,06,27,06,24,13.90
2020,06,27,06,25,13.90
2020,06,27,06,26,13.90
2020,06,27,06,27,13.90
2020,06,27,06,28,13.90
2020,06,27,06,29,13.90
2020,06,27,06,30,13.90
2020,06,27,06,31,13.90
2020,06,27,06,32,13.90
2020,06,27,06,33,13.90
2020,06,27,06,34,13.90
2020,06,27,06,35,13.90
2020,06,27,06,36,13.90
2020,06,27,06,37,13.90
2020,06,27,06,38,13.90
2020,06,27,06,39,13.90
2020,06,27,06,40,13.90
2020,06,27,06,41,13.90
2020,06,27,06,42,13.90
2020,06,27,06,43,13.90
2020,06,27,06,44,13.90
2020,06,27,06,45,13.90
2020,06,27,06,46,14.00
2020,06,27,06,47,14.00
2020,06,27,06,48,14.00
2020,06,27,06,49,13.90
2020,06,27,06,50,14.00
2020,06,27,06,51,14.00
2020,06,27,06,52,14.00
2020,06,27,06,53,14.00
2020,06,27,06,54,14.00
2020,06,27,06,55,14.00
2020,06,27,06,56,14.00
2020,06,27,06,57,14.00
2020,06,27,06,58,14.00
2020,06,27,06,59,14.00
2020,06,27,07,00,14.10
2020,06,27,07,01,14.10
2020,06,27,07,02,14.10
2020,06,27,07,03,14.10
2020,06,27,07,04,14.10
2020,06,27,07,05,14.10
2020,06,27,07,06,14.10
2020,06,27,07,07,14.10
2020,06,27,07,08,14.20
2020,06,27,07,09,14.20
2020,06,27,07,10,14.20
2020,06,27,07,11,14.20
2020,06,27,07,12,14.20
2020,06,27,07,13,14.20
2020,06,27,07,14,14.20
2020,06,27,07,15,14.20
2020,06,27,07,16,14.20
2020,06,27,07,17,14.20
2020,06,27,07,18,14.20
2020,06,27,07,19,14.20
2020,06,27,07,20,14.20
2020,06,27,07,21,14.20
2020,06,27,07,22,14.30
2020,06,27,07,23,14.30
2020,06,27,07,24,14.30
2020,06,27,07,25,14.30
2020,06,27,07,26,14.30
2020,06,27,07,27,14.30
2020,06,27,07,28,14.30
2020,06,27,07,29,14.30
2020,06,27,07,30,14.30
2020,06,27,07,31,14.30
2020,06,27,07,32,14.30
2020,06,27,07,33,14.40
2020,06,27,07,34,14.40
2020,06,27,07,35,14.40
2020,06,27,07,36,14.40
2020,06,27,07,37,14.40
2020,06,27,07,38,14.40
2020,06,27,07,39,14.40
2020,06,27,07,40,14.50
2020,06,27,07,41,14.50
2020,06,27,07,42,14.50
2020,06,27,07,43,14.50
2020,06,27,07,44,14.60
2020,06,27,07,45,14.60
2020,06,27,07,46,14.60
2020,06,27,07,47,14.60
2020,06,27,07,48,14.60
2020,06,27,07,49,14.60
2020,06,27,07,50,14.60
2020,06,27,07,51,14.70
2020,06,27,07,52,14.70
2020,06,27,07,53,14.70
2020,06,27,07,54,14.70
2020,06,27,07,55,14.70
2020,06,27,07,56,14.70
2020,06,27,07,57,14.80
2020,06,27,07,58,14.80
2020,06,27,07,59,14.80
2020,06,27,08,00,14.80
2020,06,27,08,01,14.80
2020,06,27,08,02,14.80
2020,06,27,08,03,14.80
2020,06,27,08,04,14.80
2020,06,27,08,05,14.80
2020,06,27,08,06,14.80
2020,06,27,08,07,14.80
2020,06,27,08,08,14.80
2020,06,27,08,09,14.80
2020,06,27,08,10,14.80
2020,06,27,08,11,14.80
2020,06,27,08,12,14.80
2020,06,27,08,13,14.80
2020,06,27,08,14,14.80
2020,06,27,08,15,14.80
2020,06,27,08,16,14.80
2020,06,27,08,17,14.80
2020,06,27,08,18,14.80
2020,06,27,08,19,14.90
2020,06,27,08,20,14.90
2020,06,27,08,21,14.90
2020,06,27,08,22,15.00
2020,06,27,08,23,15.00
2020,06,27,08,24,14.90
2020,06,27,08,25,14.90
2020,06,27,08,26,14.90
2020,06,27,08,27,14.90
2020,06,27,08,28,14.90
2020,06,27,08,29,14.90
2020,06,27,08,30,14.90
2020,06,27,08,31,14.90
2020,06,27,08,32,15.00
2020,06,27,08,33,14.90
2020,06,27,08,34,15.00
2020,06,27,08,35,15.00
2020,06,27,08,36,15.00
2020,06,27,08,37,15.00
2020,06,27,08,38,15.00
2020,06,27,08,39,15.00
2020,06,27,08,40,15.00
2020,06,27,08,41,15.00
2020,06,27,08,42,15.10
2020,06,27,08,43,15.10
2020,06,27,08,44,15.10
2020,06,27,08,45,15.10
2020,06,27,08,46,15.10
2020,06,27,08,47,15.10
2020,06,27,08,48,15.10
2020,06,27,08,49,15.20
2020,06,27,08,50,15.20
2020,06,27,08,51,15.20
2020,06,27,08,52,15.20
2020,06,27,08,53,15.20
2020,06,27,08,54,15.30
2020,06,27,08,55,15.30
2020,06,27,08,56,15.30
2020,06,27,08,57,15.30
2020,06,27,08,58,15.40
2020,06,27,08,59,15.40
2020,06,27,09,00,15.40
2020,06,27,09,01,15.40
2020,06,27,09,02,15.40
2020,06,27,09,03,15.40
2020,06,27,09,04,15.40
2020,06,27,09,05,15.50
2020,06,27,09,06,15.50
2020,06,27,09,07,15.50
2020,06,27,09,08,15.50
2020,06,27,09,09,15.50
2020,06,27,09,10,15.50
2020,06,27,09,11,15.50
2020,06,27,09,12,15.60
2020,06,27,09,13,15.60
2020,06,27,09,14,15.60
2020,06,27,09,15,15.60
2020,06,27,09,16,15.60
2020,06,27,09,17,15.60
2020,06,27,09,18,15.60
2020,06,27,09,19,15.60
2020,06,27,09,20,15.60
2020,06,27,09,21,15.70
2020,06,27,09,22,15.70
2020,06,27,09,23,15.70
2020,06,27,09,24,15.70
2020,06,27,09,25,15.70
2020,06,27,09,26,15.70
2020,06,27,09,27,15.70
2020,06,27,09,28,15.70
2020,06,27,09,29,15.70
2020,06,27,09,30,15.70
2020,06,27,09,31,15.70
2020,06,27,09,32,15.70
2020,06,27,09,33,15.80
2020,06,27,09,34,15.80
2020,06,27,09,35,15.80
2020,06,27,09,36,15.80
2020,06,27,09,37,15.80
2020,06,27,09,38,15.90
2020,06,27,09,39,15.90
2020,06,27,09,40,16.00
2020,06,27,09,41,16.00
2020,06,27,09,42,16.10
2020,06,27,09,43,16.10
2020,06,27,09,44,16.10
2020,06,27,09,45,16.10
2020,06,27,09,46,16.10
2020,06,27,09,47,16.10
2020,06,27,09,48,16.10
2020,06,27,09,49,16.10
2020,06,27,09,50,16.10
2020,06,27,09,51,16.10
2020,06,27,09,52,16.10
2020,06,27,15,15,17.80
2020,06,27,15,16,17.80
2020,06,27,15,17,17.80
2020,06,27,15,18,17.80
2020,06,27,15,19,17.80
2020,06,27,15,20,17.80
2020,06,27,15,21,17.80
2020,06,27,15,22,17.80
2020,06,27,15,23,17.80
2020,06,27,15,24,17.80
2020,06,27,15,25,17.70
2020,06,27,15,26,17.70
2020,06,27,15,27,17.70
2020,06,27,15,28,17.80
2020,06,27,15,29,17.80
2020,06,27,15,30,17.80
2020,06,27,15,31,17.80
2020,06,27,15,32,17.80
2020,06,27,15,33,17.80
2020,06,27,15,34,17.80
2020,06,27,15,35,17.80
2020,06,27,15,36,17.90
2020,06,27,15,37,17.90
2020,06,27,15,38,17.90
2020,06,27,15,39,18.00
2020,06,27,15,40,18.10
2020,06,27,15,41,18.10
2020,06,27,15,42,18.10
2020,06,27,15,43,18.10
2020,06,27,15,44,18.00
2020,06,27,15,45,17.90
2020,06,27,15,46,17.80
2020,06,27,15,47,17.80
2020,06,27,15,48,17.70
2020,06,27,15,49,17.70
2020,06,27,15,50,17.70
2020,06,27,15,51,17.60
2020,06,27,15,52,17.60
2020,06,27,15,53,17.60
2020,06,27,15,54,17.50
2020,06,27,15,55,17.50
2020,06,27,15,56,17.40
2020,06,27,15,57,17.40
2020,06,27,15,58,17.40
2020,06,27,15,59,17.30
2020,06,27,16,00,17.30
2020,06,27,16,01,17.30
2020,06,27,16,02,17.30
2020,06,27,16,03,17.30
2020,06,27,16,04,17.30
2020,06,27,16,05,17.30
2020,06,27,16,06,17.30
2020,06,27,16,07,17.30
2020,06,27,16,08,17.30
2020,06,27,16,09,17.30
2020,06,27,16,10,17.30
2020,06,27,16,11,17.30
2020,06,27,16,12,17.30
2020,06,27,16,13,17.30
2020,06,27,16,14,17.20
2020,06,27,16,15,17.20
2020,06,27,16,16,17.20
2020,06,27,16,17,17.20
2020,06,27,16,18,17.10
2020,06,27,16,19,17.10
2020,06,27,16,20,17.10
2020,06,27,16,21,17.10
2020,06,27,16,22,17.10
2020,06,27,16,23,17.10
2020,06,27,16,24,17.10
2020,06,27,16,25,17.20
2020,06,27,16,26,17.10
2020,06,27,16,27,17.10
2020,06,27,16,28,17.20
2020,06,27,16,29,17.20
2020,06,27,16,30,17.20
2020,06,27,16,31,17.20
2020,06,27,16,32,17.20
2020,06,27,16,33,17.20
2020,06,27,16,34,17.20
2020,06,27,16,35,17.20
2020,06,27,16,36,17.20
2020,06,27,16,37,17.20
2020,06,27,16,38,17.10
2020,06,27,16,39,17.20
2020,06,27,16,40,17.20
2020,06,27,16,41,17.20
2020,06,27,16,42,17.20
2020,06,27,16,43,17.20
2020,06,27,16,44,17.20
2020,06,27,16,45,17.20
2020,06,27,16,46,17.20
2020,06,27,16,47,17.20
2020,06,27,16,48,17.20
2020,06,27,16,49,17.20
2020,06,27,16,50,17.20
2020,06,27,16,51,17.20
2020,06,27,16,52,17.20
2020,06,27,16,53,17.20
2020,06,27,16,54,17.20
2020,06,27,16,55,17.20
2020,06,27,16,56,17.20
2020,06,27,16,57,17.20
2020,06,27,16,58,17.20
2020,06,27,16,59,17.20
2020,06,27,17,00,17.20
2020,06,27,17,01,17.20
2020,06,27,17,02,17.20
2020,06,27,17,03,17.20
2020,06,27,17,04,17.20
2020,06,27,17,05,17.20
2020,06,27,17,06,17.20
2020,06,27,17,07,17.20
2020,06,27,17,08,17.20
2020,06,27,17,09,17.20
2020,06,27,17,10,17.20
2020,06,27,17,11,17.30
2020,06,27,17,12,17.30
2020,06,27,17,13,17.30
2020,06,27,17,14,17.30
2020,06,27,17,15,17.40
2020,06,27,17,16,17.40
2020,06,27,17,17,17.40
2020,06,27,17,18,17.40
2020,06,27,17,19,17.40
2020,06,27,17,20,17.40
2020,06,27,17,21,17.40
2020,06,27,17,22,17.40
2020,06,27,17,23,17.40
2020,06,27,17,24,17.40
2020,06,27,17,25,17.40
2020,06,27,17,26,17.40
2020,06,27,17,27,17.40
2020,06,27,17,28,17.40
2020,06,27,17,29,17.40
2020,06,27,17,30,17.40
2020,06,27,17,31,17.40
2020,06,27,17,32,17.40
2020,06,27,17,33,17.40
2020,06,27,17,34,17.40
2020,06,27,17,35,17.40
2020,06,27,17,36,17.40
2020,06,27,17,37,17.40
2020,06,27,17,38,17.40
2020,06,27,17,39,17.40
2020,06,27,17,40,17.40
2020,06,27,17,41,17.30
2020,06,27,17,42,17.30
2020,06,27,17,43,17.20
2020,06,27,17,44,17.20
2020,06,27,17,45,17.10
2020,06,27,17,46,17.00
2020,06,27,17,47,16.90
2020,06,27,17,48,16.90
2020,06,27,17,49,16.80
2020,06,27,17,50,16.80
2020,06,27,17,51,16.70
2020,06,27,17,52,16.60
2020,06,27,17,53,16.60
2020,06,27,17,54,16.50
2020,06,27,17,55,16.40
2020,06,27,17,56,16.40
2020,06,27,17,57,16.40
2020,06,27,17,58,16.30
2020,06,27,17,59,16.20
2020,06,27,18,00,16.20
2020,06,27,18,01,16.10
2020,06,27,18,02,16.00
2020,06,27,18,03,16.00
2020,06,27,18,04,15.90
2020,06,27,18,05,15.90
2020,06,27,18,06,15.90
2020,06,27,18,07,15.80
2020,06,27,18,08,15.80
2020,06,27,18,09,15.80
2020,06,27,18,10,15.80
2020,06,27,18,11,15.70
2020,06,27,18,12,15.70
2020,06,27,18,13,15.70
2020,06,27,18,14,15.70
2020,06,27,18,15,15.70
2020,06,27,18,16,15.70
2020,06,27,18,17,15.60
2020,06,27,18,18,15.60
2020,06,27,18,19,15.60
2020,06,27,18,20,15.50
2020,06,27,18,21,15.40
2020,06,27,18,22,15.40
2020,06,27,18,23,15.30
2020,06,27,18,24,15.20
2020,06,27,18,25,15.20
2020,06,27,18,26,15.10
2020,06,27,18,27,15.00
2020,06,27,18,28,15.00
2020,06,27,18,29,15.00
2020,06,27,18,30,15.00
2020,06,27,18,31,15.00
2020,06,27,18,32,15.00
2020,06,27,18,33,15.00
2020,06,27,18,34,14.80
2020,06,27,18,35,14.70
2020,06,27,18,36,14.70
2020,06,27,18,37,14.70
2020,06,27,18,38,14.70
2020,06,27,18,39,14.70
2020,06,27,18,40,14.80
2020,06,27,18,41,14.80
2020,06,27,18,42,14.80
2020,06,27,18,43,14.80
2020,06,27,18,44,14.80
2020,06,27,18,45,14.90
2020,06,27,18,46,14.90
2020,06,27,18,47,14.90
2020,06,27,18,48,15.00
2020,06,27,18,49,15.00
2020,06,27,18,50,15.00
2020,06,27,18,51,15.00
2020,06,27,18,52,15.00
2020,06,27,18,53,15.00
2020,06,27,18,54,15.00
2020,06,27,18,55,15.10
2020,06,27,18,56,15.10
2020,06,27,18,57,15.10
2020,06,27,18,58,15.10
2020,06,27,18,59,15.10
2020,06,27,19,00,15.10
2020,06,27,19,01,15.20
2020,06,27,19,02,15.20
2020,06,27,19,03,15.20
2020,06,27,19,04,15.20
2020,06,27,19,05,15.20
2020,06,27,19,06,15.20
2020,06,27,19,07,15.20
2020,06,27,19,08,15.20
2020,06,27,19,09,15.20
2020,06,27,19,10,15.20
2020,06,27,19,11,15.20
2020,06,27,19,12,15.20
2020,06,27,19,13,15.20
2020,06,27,19,14,15.20
2020,06,27,19,15,15.20
2020,06,27,19,16,15.20
2020,06,27,19,17,15.20
2020,06,27,19,18,15.20
2020,06,27,19,19,15.20
2020,06,27,19,20,15.20
2020,06,27,19,21,15.20
2020,06,27,19,22,15.20
2020,06,27,19,23,15.20
2020,06,27,19,24,15.20
2020,06,27,19,25,15.20
2020,06,27,19,26,15.20
2020,06,27,19,27,15.20
2020,06,27,19,28,15.20
2020,06,27,19,29,15.20
2020,06,27,19,30,15.20
2020,06,27,19,31,15.20
2020,06,27,19,32,15.20
2020,06,27,19,33,15.20
2020,06,27,19,34,15.20
2020,06,27,19,35,15.20
2020,06,27,19,36,15.20
2020,06,27,19,37,15.20
2020,06,27,19,38,15.20
2020,06,27,19,39,15.20
2020,06,27,19,40,15.20
2020,06,27,19,41,15.20
2020,06,27,19,42,15.20
2020,06,27,19,43,15.20
2020,06,27,19,44,15.20
2020,06,27,19,45,15.20
2020,06,27,19,46,15.20
2020,06,27,19,47,15.20
2020,06,27,19,48,15.20
2020,06,27,19,49,15.20
2020,06,27,19,50,15.20
2020,06,27,19,51,15.20
2020,06,27,19,52,15.20
2020,06,27,19,53,15.20
2020,06,27,19,54,15.20
2020,06,27,19,55,15.20
2020,06,27,19,56,15.20
2020,06,27,19,57,15.20
2020,06,27,19,58,15.20
2020,06,27,19,59,15.20
2020,06,27,20,00,15.20
2020,06,27,20,01,15.20
2020,06,27,20,02,15.20
2020,06,27,20,03,15.20
2020,06,27,20,04,15.20
2020,06,27,20,05,15.20
2020,06,27,20,06,15.20
2020,06,27,20,07,15.20
2020,06,27,20,08,15.20
2020,06,27,20,09,15.20
2020,06,27,20,10,15.20
2020,06,27,20,11,15.20
2020,06,27,20,12,15.20
2020,06,27,20,13,15.20
2020,06,27,20,14,15.20
2020,06,27,20,15,15.20
2020,06,27,20,16,15.20
2020,06,27,20,17,15.20
2020,06,27,20,18,15.20
2020,06,27,20,19,15.10
2020,06,27,20,20,15.10
2020,06,27,20,21,15.10
2020,06,27,20,22,15.10
2020,06,27,20,23,15.10
2020,06,27,20,24,15.00
2020,06,27,20,25,15.10
2020,06,27,20,26,15.10
2020,06,27,20,27,15.00
2020,06,27,20,28,15.00
2020,06,27,20,29,15.00
2020,06,27,20,30,15.00
2020,06,27,20,31,15.00
2020,06,27,20,32,15.00
2020,06,27,20,33,15.00
2020,06,27,20,34,15.00
2020,06,27,20,35,15.00
2020,06,27,20,36,15.00
2020,06,27,20,37,15.00
2020,06,27,20,38,15.00
2020,06,27,20,39,15.00
2020,06,27,20,40,15.00
2020,06,27,20,41,14.90
2020,06,27,20,42,14.90
2020,06,27,20,43,14.90
2020,06,27,20,44,14.90
2020,06,27,20,45,14.80
2020,06,27,20,46,14.80
2020,06,27,20,47,14.80
2020,06,27,20,48,14.80
2020,06,27,20,49,14.80
2020,06,27,20,50,14.80
2020,06,27,20,51,14.80
2020,06,27,20,52,14.80
2020,06,27,20,53,14.80
2020,06,27,20,54,14.80
2020,06,27,20,55,14.80
2020,06,27,20,56,14.80
2020,06,27,20,57,14.80
2020,06,27,20,58,14.80
2020,06,27,20,59,14.80
2020,06,27,21,00,14.70
2020,06,27,21,01,14.70
2020,06,27,21,02,14.70
2020,06,27,21,03,14.60
2020,06,27,21,04,14.60
2020,06,27,21,05,14.60
2020,06,27,21,06,14.60
2020,06,27,21,07,14.60
2020,06,27,21,08,14.50
2020,06,27,21,09,14.50
2020,06,27,21,10,14.50
2020,06,27,21,11,14.40
2020,06,27,21,12,14.40
2020,06,27,21,13,14.40
2020,06,27,21,14,14.40
2020,06,27,21,15,14.40
2020,06,27,21,16,14.40
2020,06,27,21,17,14.40
2020,06,27,21,18,14.40
2020,06,27,21,19,14.40
2020,06,27,21,20,14.40
2020,06,27,21,21,14.40
2020,06,27,21,22,14.30
2020,06,27,21,23,14.30
2020,06,27,21,24,14.30
2020,06,27,21,25,14.30
2020,06,27,21,26,14.30
2020,06,27,21,27,14.30
2020,06,27,21,28,14.30
2020,06,27,21,29,14.30
2020,06,27,21,30,14.30
2020,06,27,21,31,14.30
2020,06,27,21,32,14.30
2020,06,27,21,33,14.30
2020,06,27,21,34,14.30
2020,06,27,21,35,14.20
2020,06,27,21,36,14.20
2020,06,27,21,37,14.20
2020,06,27,21,38,14.20
2020,06,27,21,39,14.20
2020,06,27,21,40,14.20
2020,06,27,21,41,14.10
2020,06,27,21,42,14.10
2020,06,27,21,43,14.10
2020,06,27,21,44,14.10
2020,06,27,21,45,14.10
2020,06,27,21,46,14.10
2020,06,27,21,47,14.10
2020,06,27,21,48,14.00
2020,06,27,21,49,14.00
2020,06,27,21,50,14.00
2020,06,27,21,51,14.00
2020,06,27,21,52,14.00
2020,06,27,21,53,13.90
2020,06,27,21,54,13.90
2020,06,27,21,55,13.90
2020,06,27,21,56,13.90
2020,06,27,21,57,13.90
2020,06,27,21,58,13.90
2020,06,27,21,59,13.90
2020,06,27,22,00,13.90
2020,06,27,22,01,13.90
2020,06,27,22,02,13.80
2020,06,27,22,03,13.80
2020,06,27,22,04,13.80
2020,06,27,22,05,13.80
2020,06,27,22,06,13.80
2020,06,27,22,07,13.80
2020,06,27,22,08,13.80
2020,06,27,22,09,13.80
2020,06,27,22,10,13.80
2020,06,27,22,11,13.80
2020,06,27,22,12,13.80
2020,06,27,22,13,13.70
2020,06,27,22,14,13.70
2020,06,27,22,15,13.70
2020,06,27,22,16,13.70
2020,06,27,22,17,13.70
2020,06,27,22,18,13.70
2020,06,27,22,19,13.70
2020,06,27,22,20,13.70
2020,06,27,22,21,13.70
2020,06,27,22,22,13.70
2020,06,27,22,23,13.70
2020,06,27,22,24,13.60
2020,06,27,22,25,13.60
2020,06,27,22,26,13.60
2020,06,27,22,27,13.60
2020,06,27,22,28,13.60
2020,06,27,22,29,13.60
2020,06,27,22,30,13.60
2020,06,27,22,31,13.60
2020,06,27,22,32,13.60
2020,06,27,22,33,13.50
2020,06,27,22,34,13.50
2020,06,27,22,35,13.50
2020,06,27,22,36,13.40
2020,06,27,22,37,13.40
2020,06,27,22,38,13.40
2020,06,27,22,39,13.40
2020,06,27,22,40,13.40
2020,06,27,22,41,13.40